DW0809 Weather Reports


Display with metric or nautical units.
time (UTC)temp
F
wind
direction
speed
MPH
gust
MPH
rain 1hr
in
rain 24hr
in
rain mn
in
humidity
%
barometer
mb
20180717072617 73 0.0 0.0 0.00 0.00 0.00 78 1016.6
20180717071617 73 0.0 0.0 0.00 0.00 0.00 80 1016.6
20180717070617 73 0.0 0.0 0.00 0.00 0.00 79 1016.6
20180717065616 73 0.0 0.0 0.00 0.00 0.00 79 1016.5
20180717064637 74 0.0 0.0 0.00 0.00 0.00 80 1016.7
20180717063637 74 0.0 0.0 0.00 0.00 0.00 79 1016.8
20180717062616 74 0.0 0.0 0.00 0.00 0.00 78 1017.1
20180717061616 75 0.0 0.0 0.00 0.00 0.00 78 1017.1
20180717060616 75 0.0 0.0 0.00 0.00 0.00 77 1017.3
20180717055616 75 0.0 0.0 0.00 0.00 0.00 77 1017.3
20180717054636 75 0.0 0.0 0.00 0.00 0.00 76 1017.1
20180717053637 75 0.0 0.0 0.00 0.00 0.00 75 1017.0
20180717052616 75 0.0 0.0 0.00 0.00 0.00 75 1016.9
20180717051617 76 0.0 0.0 0.00 0.00 0.00 75 1016.7
20180717050617 76 0.0 0.0 0.00 0.00 0.00 75 1016.7
20180717045617 76 0.0 0.0 0.00 0.00 0.00 75 1016.7
20180717044617 76 0.0 0.0 0.00 0.00 0.00 75 1016.7
20180717043637 76 0.0 0.0 0.00 0.00 0.00 75 1016.7
20180717042617 76 0.0 0.0 0.00 0.00 0.00 75 1016.7
20180717041617 77 0.0 0.0 0.00 0.00 0.00 75 1016.5
20180717040637 77 0.0 0.0 0.00 0.00 0.00 75 1016.5
20180717035617 77 0.0 0.0 0.00 0.00 0.00 75 1016.5
20180717034657 77 0.0 0.0 0.00 0.00 0.00 75 1016.4
20180717033617 78 0.0 0.0 0.00 0.00 0.00 75 1016.5
20180717032617 78 0.0 0.0 0.00 0.00 0.00 74 1016.5
20180717031617 78 0.0 0.0 0.00 0.00 0.00 74 1016.3
20180717030617 78 0.0 0.0 0.00 0.00 0.00 73 1016.4
20180717025617 78 0.0 0.0 0.00 0.00 0.00 73 1016.4
20180717024616 79 0.0 0.0 0.00 0.00 0.00 73 1016.3
20180717023657 79 0.0 0.0 0.00 0.00 0.00 73 1016.1
20180717022617 79 0.0 0.0 0.00 0.00 0.00 72 1016.0
20180717021616 80 0.0 0.0 0.00 0.00 0.00 71 1015.6
20180717020617 80 0.0 0.0 0.00 0.00 0.00 71 1015.6
20180717015616 80 0.0 1.0 0.00 0.00 0.00 70 1015.4
20180717014616 80 0.0 0.0 0.00 0.00 0.00 71 1015.4
20180717013637 81 0.0 0.0 0.00 0.00 0.00 71 1015.4
20180717012657 81 0.0 0.0 0.00 0.00 0.00 71 1015.2
20180717011616 81 0.0 4.0 0.00 0.00 0.00 71 1014.9
20180717010616 82 0.0 1.0 0.00 0.00 0.00 71 1014.9
20180717005617 82 0.0 1.0 0.00 0.00 0.00 72 1014.8
20180717004617 83 0.0 2.0 0.00 0.00 0.00 72 1014.7
20180717003618 83 0.0 1.0 0.00 0.00 0.00 71 1014.7
20180717002616 84 0.0 2.0 0.00 0.00 0.00 71 1014.9
20180717001636 84 0.0 0.0 0.00 0.00 0.00 71 1014.9
20180717000658 85 0.0 1.0 0.00 0.00 0.00 71 1014.9
20180716235618 85 0.0 0.0 0.00 0.00 0.00 70 1014.9
20180716234617 85 0.0 0.0 0.00 0.00 0.00 69 1015.1
20180716233616 86 0.0 0.0 0.00 0.00 0.00 69 1015.1
20180716232618 86 0.0 0.0 0.00 0.00 0.00 67 1015.2
20180716231637 87 0.0 0.0 0.00 0.00 0.00 66 1015.3
20180716225636 87 0.0 1.0 0.00 0.00 0.00 66 1015.5
20180716224625 87 0.0 0.0 0.00 0.00 0.00 65 1015.6
20180716223618 87 0.0 0.0 0.00 0.00 0.00 64 1015.6
20180716222617 87 0.0 0.0 0.00 0.00 0.00 66 1015.7
20180716221656 87 0.0 0.0 0.00 0.00 0.00 65 1015.6
20180716220616 86 0.0 0.0 0.00 0.00 0.00 67 1015.7
20180716215616 86 0.0 0.0 0.00 0.00 0.00 67 1015.7
20180716214616 87 0.0 0.0 0.00 0.00 0.00 65 1015.6
20180716213636 87 0.0 0.0 0.00 0.00 0.00 67 1015.9
20180716212616 87 0.0 0.0 0.00 0.00 0.00 66 1015.9
20180716211656 87 0.0 0.0 0.00 0.00 0.00 67 1015.9
20180716210616 86 0.0 0.0 0.00 0.00 0.00 68 1016.0
20180716205616 86 0.0 0.0 0.00 0.00 0.00 70 1016.1
20180716204636 85 0.0 0.0 0.00 0.00 0.00 71 1016.1
20180716203616 85 0.0 0.0 0.00 0.00 0.00 68 1016.3
20180716202636 85 0.0 0.0 0.00 0.00 0.00 68 1016.5
20180716201636 85 0.0 0.0 0.00 0.00 0.00 68 1016.6
20180716200616 85 0.0 1.0 0.00 0.00 0.00 68 1016.6
20180716195616 85 0.0 0.0 0.00 0.00 0.00 68 1016.6
20180716194636 84 0.0 0.0 0.00 0.00 0.00 71 1016.7
20180716193616 84 0.0 1.0 0.00 0.00 0.00 70 1016.8
20180716192616 83 0.0 4.0 0.00 0.00 0.00 71 1016.8
20180716191616 83 0.0 0.0 0.00 0.00 0.00 69 1016.8
20180716190616 83 0.0 0.0 0.00 0.00 0.00 71 1017.0
20180716185656 83 0.0 1.0 0.00 0.00 0.00 69 1016.9
20180716184616 83 0.0 0.0 0.00 0.00 0.00 71 1017.0
20180716183616 83 0.0 0.0 0.00 0.00 0.00 71 1017.1
20180716182616 84 0.0 10.0 0.00 0.00 0.00 69 1017.1
20180716181616 84 0.0 0.0 0.00 0.00 0.00 72 1017.2
20180716180616 83 0.0 3.0 0.00 0.00 0.00 69 1017.1
20180716175636 83 0.0 0.0 0.00 0.00 0.00 71 1017.2
20180716174616 83 0.0 0.0 0.00 0.00 0.00 71 1017.3
20180716173616 82 0.0 0.0 0.00 0.00 0.00 73 1017.4
20180716172616 82 0.0 0.0 0.00 0.00 0.00 70 1017.4
20180716171636 82 0.0 0.0 0.00 0.00 0.00 71 1017.3
20180716170635 82 0.0 2.0 0.00 0.00 0.00 72 1017.4
20180716165636 81 0.0 0.0 0.00 0.00 0.00 73 1017.4
20180716164636 80 0.0 0.0 0.00 0.00 0.00 73 1017.4
20180716163616 80 0.0 0.0 0.00 0.00 0.00 73 1017.4
20180716162615 80 0.0 1.0 0.00 0.00 0.00 73 1017.4
20180716161616 80 0.0 0.0 0.00 0.00 0.00 74 1017.4
20180716160615 79 0.0 0.0 0.00 0.00 0.00 77 1017.4
20180716155616 79 0.0 1.0 0.00 0.00 0.00 76 1017.6
20180716154616 79 0.0 3.0 0.00 0.00 0.00 75 1017.6
20180716153615 78 0.0 0.0 0.00 0.00 0.00 80 1017.6
20180716152656 78 0.0 2.0 0.00 0.00 0.00 82 1017.7
20180716151616 78 0.0 0.0 0.00 0.00 0.00 83 1017.7
20180716150615 77 0.0 3.0 0.00 0.00 0.00 81 1017.6
20180716145636 78 0.0 0.0 0.00 0.00 0.00 81 1017.7
20180716144615 78 0.0 0.0 0.00 0.00 0.00 81 1017.6
20180716143636 77 0.0 2.0 0.00 0.00 0.00 81 1017.4
20180716142615 76 0.0 0.0 0.00 0.00 0.00 83 1017.2
20180716141636 75 0.0 0.0 0.00 0.00 0.00 89 1017.2
20180716140616 74 0.0 0.0 0.00 0.00 0.00 89 1017.2
20180716135656 74 0.0 0.0 0.00 0.00 0.00 90 1017.1
20180716134635 74 0.0 0.0 0.00 0.00 0.00 90 1016.9
20180716133616 74 0.0 1.0 0.00 0.00 0.00 91 1016.9
20180716132617 74 0.0 0.0 0.00 0.00 0.00 91 1016.8
20180716131638 74 0.0 0.0 0.00 0.00 0.00 92 1016.7
20180716130617 74 0.0 0.0 0.00 0.00 0.00 92 1016.6
20180716125617 74 0.0 0.0 0.00 0.00 0.00 92 1016.5
20180716124617 74 0.0 0.0 0.00 0.00 0.00 93 1016.4
20180716123617 73 0.0 0.0 0.00 0.00 0.00 93 1016.4
20180716122617 73 0.0 0.0 0.00 0.00 0.00 94 1016.3
20180716121657 73 0.0 0.0 0.00 0.00 0.00 94 1016.3
20180716120637 73 0.0 0.0 0.00 0.00 0.00 94 1016.2
20180716115657 73 0.0 0.0 0.00 0.00 0.00 95 1016.1
20180716114617 73 0.0 0.0 0.00 0.00 0.00 95 1016.0
20180716113617 73 0.0 0.0 0.00 0.00 0.00 94 1015.9
20180716112617 73 0.0 0.0 0.00 0.00 0.00 94 1016.0
20180716111617 73 0.0 0.0 0.00 0.00 0.00 94 1015.8
20180716110617 73 0.0 0.0 0.00 0.00 0.00 94 1015.7
20180716105617 73 0.0 0.0 0.00 0.00 0.00 93 1015.7
20180716104617 73 0.0 0.0 0.00 0.00 0.00 93 1015.6
20180716103617 74 0.0 0.0 0.00 0.00 0.00 93 1015.6
20180716102617 74 0.0 0.0 0.00 0.00 0.00 92 1015.5
20180716101657 74 0.0 0.0 0.00 0.00 0.00 92 1015.6
20180716100657 74 0.0 0.0 0.00 0.00 0.00 91 1015.6
20180716095617 75 0.0 0.0 0.00 0.00 0.00 91 1015.5
20180716094617 75 0.0 0.0 0.00 0.00 0.00 90 1015.6
20180716093617 75 0.0 0.0 0.00 0.00 0.00 89 1015.3
20180716092617 75 0.0 0.0 0.00 0.00 0.00 89 1015.3
20180716091637 75 0.0 0.0 0.00 0.00 0.00 89 1015.4
20180716090617 76 0.0 0.0 0.00 0.00 0.00 88 1015.5
20180716085617 76 0.0 0.0 0.00 0.00 0.00 88 1015.6
20180716084617 75 0.0 0.0 0.00 0.00 0.00 88 1015.7
20180716083617 75 0.0 0.0 0.00 0.00 0.00 87 1015.8
20180716082617 75 0.0 0.0 0.00 0.00 0.00 86 1015.7
20180716081617 75 0.0 0.0 0.00 0.00 0.00 85 1015.7
20180716080617 75 0.0 0.0 0.00 0.00 0.00 84 1015.6
20180716075617 75 0.0 0.0 0.00 0.00 0.00 84 1015.6
20180716074638 75 0.0 0.0 0.00 0.00 0.00 83 1015.6
20180716073617 75 0.0 0.0 0.00 0.00 0.00 83 1015.7